sat.trackr.live / text

‹ back to catalog

2025-313AC

NORAD 67274 · 2025-313AC

PAYLOAD ACTIVE UNKNOWN

§ Identity

Operator
Country
TBD
Launch date
2025-12-28
Launch site
VOSTO
Launch vehicle
Mass (kg)
RCS (m²)

External: N2YO · Heavens-Above · Gunter

§ Orbital elements

Epoch: 2026-09-20T10:19:53.247360Z

Period
94.52 min
Inclination
97.3852°
Eccentricity
0.0015028
Mean motion
15.23524143 rev/d
Perigee alt
484.9 km
Apogee alt
505.6 km
Semi-major
6,873.4 km
B*
1.7709e-4
RAAN
336.4942°
Arg perigee
35.2772°
Mean anomaly
324.9457°
Rev number
4,044

§ Raw data

2025-313AC1 67274U 25313AC  26263.43047740  .00004170  00000+0  17709-3 0  99962 67274  97.3852 336.4942 0015028  35.2772 324.9457 15.23524143 40441

JSON: /api/v1/satellites/67274 · /tle

For live sub-satellite position, see the globe view (requires WebGL).

§ Visibility from observer

Set your observer location to see the next 7 days of passes ≥ 10°. The values pass through the URL so the page stays shareable.

No JS? Fill the form by hand. The geolocation button needs JavaScript.